sat.trackr.live / text

‹ back to catalog

STARLINK-6200

NORAD 56897 · 2023-083X

PAYLOAD ACTIVE UNKNOWN

§ Identity

Operator
Country
US
Launch date
2023-06-12
Launch site
AFETR
Launch vehicle
Mass (kg)
RCS (m²)

Purposes: comms

External: N2YO · Heavens-Above · Gunter

§ Orbital elements

Epoch: 2026-05-25T00:54:27.388800Z

Period
94.27 min
Inclination
43.0057°
Eccentricity
0.0001551
Mean motion
15.27582619 rev/d
Perigee alt
482.0 km
Apogee alt
484.1 km
Semi-major
6,861.2 km
B*
6.3172e-5
RAAN
17.7066°
Arg perigee
275.4509°
Mean anomaly
84.6165°
Rev number
16,337

§ Raw data

STARLINK-62001 56897U 23083X   26145.03781700  .00001477  00000+0  63172-4 0  99962 56897  43.0057  17.7066 0001551 275.4509  84.6165 15.27582619163373

JSON: /api/v1/satellites/56897 · /tle

For live sub-satellite position, see the globe view (requires WebGL).

§ Visibility from observer

Set your observer location to see the next 7 days of passes ≥ 10°. The values pass through the URL so the page stays shareable.

No JS? Fill the form by hand. The geolocation button needs JavaScript.